Location: Newark
(42.8481°N, 0.4872°E)
Time: 00:18:45
(UTC+00:00)

Transit 2A - Pass Details

Date: 28 October 2020
Orbit: 595 x 963 km, 66.7° (Epoch: 03 December)

Event Time Altitude Azimuth Distance (km) Brightness Sun altitude
Rises 10:19:22 0° 325° (NW) 3,423 8.8 30.7°
Reaches altitude 10° 10:22:00 10° 320° (NW) 2,425 8.2 30.9°
Maximum altitude 10:27:21 51° 246° (WSW) 954 7.0 31.3°
Drops below altitude 10° 10:32:09 10° 171° (S) 2,170 9.8 31.6°
Sets 10:34:24 0° 166° (SSE) 3,030 10.2 31.7°
